| time (UTC) | temp C | wind direction | speed KPH | gust KPH | rain 1hr cm | rain 24hr cm | rain mn cm | humidity % | barometer mb |
| 20260506033015 | 9 | 67 | 0.0 | 11.3 | 0.00 | 0.00 | 0.00 | 83 | 1012.2 |
| 20260506031529 | 9 | 100 | 1.6 | 12.9 | 0.00 | 0.00 | 0.00 | 83 | 1011.9 |
| 20260506030013 | 9 | 59 | 1.6 | 9.7 | 0.00 | 0.00 | 0.00 | 82 | 1011.8 |
| 20260506024517 | 9 | 96 | 3.2 | 14.5 | 0.00 | 0.00 | 0.00 | 82 | 1011.3 |
| 20260506023010 | 9 | 26 | 3.2 | 14.5 | 0.00 | 0.00 | 0.00 | 82 | 1010.9 |
| 20260506021509 | 10 | 42 | 6.4 | 17.7 | 0.00 | 0.00 | 0.00 | 82 | 1011.1 |
| 20260506020003 | 10 | 34 | 3.2 | 12.9 | 0.00 | 0.00 | 0.00 | 81 | 1010.8 |
| 20260506014501 | 10 | 34 | 4.8 | 16.1 | 0.00 | 0.00 | 0.00 | 81 | 1010.5 |
| 20260506013059 | 10 | 24 | 4.8 | 17.7 | 0.00 | 0.00 | 0.00 | 79 | 1010.6 |
| 20260506011606 | 10 | 57 | 3.2 | 12.9 | 0.00 | 0.00 | 0.00 | 77 | 1010.3 |
| 20260506010056 | 10 | 30 | 3.2 | 14.5 | 0.00 | 0.00 | 0.00 | 76 | 1009.9 |
| 20260506004550 | 11 | 65 | 4.8 | 17.7 | 0.00 | 0.00 | 0.00 | 76 | 1009.5 |
| 20260506003047 | 11 | 47 | 3.2 | 9.7 | 0.00 | 0.00 | 0.00 | 77 | 1009.0 |
| 20260506001546 | 11 | 140 | 4.8 | 12.9 | 0.00 | 0.00 | 0.00 | 76 | 1009.1 |
| 20260506000044 | 11 | 349 | 3.2 | 17.7 | 0.00 | 0.00 | 0.00 | 76 | 1008.9 |
| 20260505234547 | 11 | 195 | 3.2 | 12.9 | 0.00 | 0.00 | 0.00 | 76 | 1008.9 |
| 20260505233042 | 11 | 64 | 3.2 | 17.7 | 0.00 | 0.00 | 0.00 | 76 | 1008.9 |
| 20260505231546 | 11 | 360 | 4.8 | 17.7 | 0.00 | 0.00 | 0.00 | 76 | 1009.0 |
| 20260505230035 | 12 | 36 | 3.2 | 8.0 | 0.00 | 0.00 | 0.00 | 76 | 1008.7 |
| 20260505224534 | 12 | 32 | 4.8 | 17.7 | 0.00 | 0.00 | 0.00 | 76 | 1008.5 |
| 20260505223036 | 12 | 36 | 3.2 | 9.7 | 0.00 | 0.00 | 0.00 | 76 | 1008.5 |
| 20260505221531 | 12 | 43 | 3.2 | 14.5 | 0.00 | 0.00 | 0.00 | 77 | 1008.4 |
| 20260505220035 | 12 | 62 | 4.8 | 16.1 | 0.00 | 0.00 | 0.00 | 77 | 1007.9 |
| 20260505214535 | 12 | 18 | 6.4 | 16.1 | 0.00 | 0.00 | 0.00 | 77 | 1007.3 |
| 20260505213026 | 12 | 22 | 3.2 | 12.9 | 0.00 | 0.00 | 0.00 | 78 | 1007.6 |
| 20260505211525 | 12 | 80 | 1.6 | 16.1 | 0.00 | 0.00 | 0.00 | 80 | 1007.8 |
| 20260505210026 | 12 | 9 | 4.8 | 14.5 | 0.00 | 0.00 | 0.00 | 80 | 1007.2 |
| 20260505204518 | 12 | 18 | 4.8 | 14.5 | 0.00 | 0.00 | 0.00 | 81 | 1007.2 |
| 20260505203016 | 13 | 40 | 4.8 | 16.1 | 0.00 | 0.00 | 0.00 | 80 | 1006.8 |
| 20260505201513 | 13 | 38 | 3.2 | 17.7 | 0.00 | 0.00 | 0.00 | 81 | 1007.1 |
| 20260505200019 | 13 | 28 | 3.2 | 14.5 | 0.00 | 0.00 | 0.00 | 80 | 1006.8 |
| 20260505194509 | 13 | 25 | 4.8 | 16.1 | 0.00 | 0.00 | 0.00 | 80 | 1006.6 |
| 20260505193008 | 13 | 38 | 3.2 | 12.9 | 0.00 | 0.00 | 0.00 | 81 | 1006.4 |
| 20260505191506 | 14 | 360 | 6.4 | 14.5 | 0.00 | 0.00 | 0.00 | 80 | 1006.5 |
| 20260505190004 | 14 | 38 | 4.8 | 20.9 | 0.00 | 0.00 | 0.00 | 81 | 1005.4 |
| 20260505184502 | 14 | 16 | 4.8 | 19.3 | 0.00 | 0.00 | 0.00 | 80 | 1006.2 |
| 20260505183059 | 14 | 33 | 3.2 | 16.1 | 0.00 | 0.00 | 0.00 | 81 | 1005.8 |
| 20260505181559 | 15 | 10 | 4.8 | 16.1 | 0.00 | 0.00 | 0.00 | 81 | 1005.7 |
| 20260505180053 | 15 | 55 | 6.4 | 20.9 | 0.00 | 0.00 | 0.00 | 81 | 1004.9 |
| 20260505174555 | 15 | 76 | 4.8 | 16.1 | 0.00 | 0.00 | 0.00 | 81 | 1004.7 |
| 20260505173047 | 15 | 355 | 6.4 | 25.7 | 0.00 | 0.00 | 0.00 | 80 | 1004.7 |
| 20260505171544 | 17 | 39 | 6.4 | 30.6 | 0.00 | 0.00 | 0.00 | 78 | 1004.4 |
| 20260505170040 | 18 | 360 | 4.8 | 19.3 | 0.00 | 0.00 | 0.00 | 78 | 1003.6 |
| 20260505164535 | 20 | 302 | 4.8 | 22.5 | 0.00 | 0.00 | 0.00 | 76 | 1003.2 |
| 20260505163031 | 22 | 197 | 3.2 | 12.9 | 0.00 | 0.00 | 0.00 | 70 | 1002.7 |
| 20260505161529 | 23 | 360 | 0.0 | 1.6 | 0.00 | 0.00 | 0.00 | 74 | 1002.0 |
| 20260505153020 | 23 | 163 | 0.0 | 3.2 | 0.00 | 0.00 | 0.00 | 75 | 1001.3 |
| 20260505151520 | 23 | 163 | 0.0 | 0.0 | 0.00 | 0.00 | 0.00 | 75 | 1001.2 |
| 20260505124501 | 21 | 173 | 0.0 | 4.8 | 0.00 | 0.00 | 0.00 | 82 | 999.7 |
| 20260505123106 | 20 | 360 | 0.0 | 6.4 | 0.00 | 0.00 | 0.00 | 82 | 999.7 |
| 20260505121557 | 20 | 360 | 3.2 | 6.4 | 0.00 | 0.00 | 0.00 | 82 | 999.1 |
| 20260505120109 | 20 | 360 | 3.2 | 8.0 | 0.00 | 0.00 | 0.00 | 82 | 999.1 |
| 20260505114553 | 21 | 360 | 3.2 | 8.0 | 0.00 | 0.00 | 0.00 | 81 | 998.7 |
| 20260505113055 | 21 | 172 | 1.6 | 8.0 | 0.00 | 0.00 | 0.00 | 80 | 998.7 |
| 20260505111551 | 21 | 178 | 1.6 | 12.9 | 0.00 | 0.00 | 0.00 | 80 | 998.4 |
| 20260505110106 | 21 | 170 | 3.2 | 11.3 | 0.00 | 0.00 | 0.00 | 80 | 998.5 |
| 20260505101547 | 21 | 360 | 3.2 | 11.3 | 0.00 | 0.00 | 0.00 | 79 | 998.4 |
| 20260505100048 | 21 | 180 | 4.8 | 12.9 | 0.00 | 0.00 | 0.00 | 79 | 998.4 |
| 20260505094544 | 21 | 178 | 3.2 | 14.5 | 0.00 | 0.00 | 0.00 | 78 | 998.3 |
| 20260505093043 | 21 | 360 | 4.8 | 9.7 | 0.00 | 0.00 | 0.00 | 78 | 998.5 |
| 20260505091541 | 21 | 360 | 6.4 | 12.9 | 0.00 | 0.00 | 0.00 | 78 | 998.4 |
| 20260505090041 | 21 | 360 | 4.8 | 16.1 | 0.00 | 0.00 | 0.00 | 78 | 998.7 |
| 20260505084541 | 21 | 360 | 4.8 | 9.7 | 0.00 | 0.00 | 0.00 | 78 | 998.6 |
| 20260505083038 | 21 | 360 | 4.8 | 14.5 | 0.00 | 0.00 | 0.00 | 78 | 998.7 |
| 20260505081544 | 21 | 360 | 3.2 | 17.7 | 0.00 | 0.00 | 0.00 | 78 | 999.1 |
| 20260505080039 | 22 | 360 | 4.8 | 12.9 | 0.00 | 0.00 | 0.00 | 77 | 999.2 |
| 20260505074536 | 21 | 360 | 6.4 | 16.1 | 0.00 | 0.00 | 0.00 | 78 | 999.1 |
| 20260505073044 | 21 | 360 | 4.8 | 12.9 | 0.00 | 0.00 | 0.00 | 78 | 999.3 |
| 20260505071547 | 21 | 360 | 8.0 | 20.9 | 0.00 | 0.00 | 0.00 | 78 | 999.5 |
| 20260505070032 | 21 | 360 | 6.4 | 14.5 | 0.00 | 0.00 | 0.00 | 78 | 999.8 |
| 20260505064531 | 21 | 360 | 8.0 | 19.3 | 0.00 | 0.00 | 0.00 | 78 | 999.9 |
| 20260505063030 | 21 | 360 | 8.0 | 20.9 | 0.00 | 0.00 | 0.00 | 78 | 1000.0 |
| 20260505061532 | 21 | 360 | 6.4 | 16.1 | 0.00 | 0.00 | 0.00 | 78 | 1000.4 |
| 20260505060024 | 21 | 360 | 6.4 | 17.7 | 0.00 | 0.00 | 0.00 | 77 | 1000.6 |
| 20260505054532 | 21 | 360 | 4.8 | 14.5 | 0.00 | 0.00 | 0.00 | 77 | 1000.7 |
| 20260505053027 | 22 | 360 | 4.8 | 22.5 | 0.00 | 0.00 | 0.00 | 76 | 1000.8 |
| 20260505051532 | 22 | 360 | 4.8 | 14.5 | 0.00 | 0.00 | 0.00 | 76 | 1000.8 |
| 20260505041517 | 22 | 360 | 6.4 | 20.9 | 0.00 | 0.00 | 0.00 | 74 | 1001.2 |
| 20260505040023 | 22 | 360 | 6.4 | 19.3 | 0.00 | 0.00 | 0.00 | 74 | 1001.4 |
| 20260505034513 | 22 | 360 | 6.4 | 17.7 | 0.00 | 0.00 | 0.00 | 73 | 1001.3 |